Location: Prostejov
(49.4670°N, 17.1170°E)
Time: 11:03:38
(UTC+02:00)

ISS - Pass Details

Date: 18 May 2021
Orbit: 417 x 422 km, 51.6° (Epoch: 13 June)

Event Time Altitude Azimuth Distance (km) Brightness Sun altitude
Rises 22:53:32 0° 267° (W) 2,363 0.4 -16.3°
Reaches altitude 10° 22:55:39 10° 271° (W) 1,501 -0.6 -16.4°
Maximum altitude 22:58:59 61° 352° (N) 482 -3.2 -16.7°
Drops below altitude 10° 23:02:21 10° 74° (ENE) 1,506 -1.1 -16.9°
Enters shadow 23:03:32 - 77° (ENE) 1,987 -0.5 -17.0°
